| time (UTC) | temp C | wind direction | speed KPH | gust KPH | rain 1hr cm | rain 24hr cm | rain mn cm | humidity % | barometer mb |
| 20260503054629 | 1 | 281 | 0.0 | 0.0 | 0.00 | 0.00 | 0.00 | 89 | 1017.9 |
| 20260503052632 | 1 | 281 | 0.0 | 0.0 | 0.00 | 0.00 | 0.00 | 89 | 1018.1 |
| 20260503051629 | 1 | 281 | 0.0 | 0.0 | 0.00 | 0.00 | 0.00 | 88 | 1018.0 |
| 20260503050631 | 1 | 281 | 0.0 | 0.0 | 0.00 | 0.00 | 0.00 | 88 | 1018.1 |
| 20260503045630 | 1 | 281 | 0.0 | 0.0 | 0.00 | 0.00 | 0.00 | 88 | 1018.0 |
| 20260503044630 | 1 | 281 | 0.0 | 0.0 | 0.00 | 0.00 | 0.00 | 88 | 1018.0 |
| 20260503043630 | 2 | 281 | 0.0 | 0.0 | 0.00 | 0.00 | 0.00 | 88 | 1017.8 |
| 20260503042633 | 2 | 281 | 0.0 | 0.0 | 0.00 | 0.00 | 0.00 | 88 | 1017.8 |
| 20260503041631 | 2 | 281 | 0.0 | 0.0 | 0.00 | 0.00 | 0.00 | 88 | 1017.9 |
| 20260503035631 | 2 | 281 | 0.0 | 0.0 | 0.00 | 0.00 | 0.00 | 88 | 1018.0 |
| 20260503034630 | 2 | 281 | 0.0 | 0.0 | 0.00 | 0.00 | 0.00 | 87 | 1018.0 |
| 20260503033630 | 1 | 281 | 0.0 | 0.0 | 0.00 | 0.00 | 0.00 | 85 | 1017.9 |
| 20260503032630 | 2 | 281 | 0.0 | 0.0 | 0.00 | 0.00 | 0.00 | 84 | 1018.1 |
| 20260503030630 | 2 | 281 | 0.0 | 0.0 | 0.00 | 0.00 | 0.00 | 82 | 1018.3 |
| 20260503025630 | 2 | 281 | 0.0 | 0.0 | 0.00 | 0.00 | 0.00 | 80 | 1018.3 |
| 20260503024630 | 3 | 281 | 0.0 | 0.0 | 0.00 | 0.00 | 0.00 | 80 | 1018.2 |
| 20260503023631 | 3 | 281 | 0.0 | 0.0 | 0.00 | 0.00 | 0.00 | 78 | 1018.3 |
| 20260503022631 | 3 | 281 | 0.0 | 0.0 | 0.00 | 0.00 | 0.00 | 74 | 1018.2 |
| 20260503020633 | 5 | 281 | 0.0 | 0.0 | 0.00 | 0.00 | 0.00 | 67 | 1018.1 |
| 20260503015630 | 5 | 281 | 0.0 | 0.0 | 0.00 | 0.00 | 0.00 | 65 | 1018.0 |
| 20260503014630 | 6 | 281 | 0.0 | 0.0 | 0.00 | 0.00 | 0.00 | 64 | 1018.0 |
| 20260503013630 | 6 | 281 | 0.0 | 0.0 | 0.00 | 0.00 | 0.00 | 64 | 1017.9 |
| 20260503012629 | 6 | 281 | 0.0 | 0.0 | 0.00 | 0.00 | 0.00 | 63 | 1017.8 |
| 20260503011630 | 6 | 281 | 0.0 | 0.0 | 0.00 | 0.00 | 0.00 | 62 | 1017.7 |
| 20260503010629 | 6 | 281 | 0.0 | 0.0 | 0.00 | 0.00 | 0.00 | 62 | 1017.7 |
| 20260503005631 | 7 | 271 | 0.0 | 6.4 | 0.00 | 0.00 | 0.00 | 62 | 1017.6 |
| 20260503004631 | 7 | 265 | 0.0 | 3.2 | 0.00 | 0.00 | 0.00 | 61 | 1017.6 |
| 20260503003630 | 7 | 333 | 0.0 | 0.0 | 0.00 | 0.00 | 0.00 | 62 | 1017.5 |
| 20260503002630 | 7 | 333 | 0.0 | 9.7 | 0.00 | 0.00 | 0.00 | 60 | 1017.5 |
| 20260503000631 | 7 | 305 | 0.0 | 3.2 | 0.00 | 0.00 | 0.00 | 59 | 1017.4 |
| 20260502235632 | 7 | 329 | 3.2 | 9.7 | 0.00 | 0.00 | 0.00 | 57 | 1017.3 |
| 20260502232630 | 8 | 354 | 3.2 | 17.7 | 0.00 | 0.00 | 0.00 | 57 | 1017.2 |
| 20260502231630 | 8 | 302 | 9.7 | 17.7 | 0.00 | 0.00 | 0.00 | 53 | 1017.2 |
| 20260502230630 | 8 | 321 | 6.4 | 14.5 | 0.00 | 0.00 | 0.00 | 55 | 1017.2 |
| 20260502225630 | 8 | 288 | 4.8 | 17.7 | 0.00 | 0.00 | 0.00 | 54 | 1017.2 |
| 20260502224630 | 8 | 330 | 6.4 | 24.1 | 0.00 | 0.00 | 0.00 | 54 | 1017.1 |
| 20260502223630 | 8 | 347 | 8.0 | 17.7 | 0.00 | 0.00 | 0.00 | 53 | 1017.1 |
| 20260502222629 | 9 | 65 | 9.7 | 37.0 | 0.00 | 0.00 | 0.00 | 54 | 1017.0 |
| 20260502221630 | 9 | 337 | 6.4 | 24.1 | 0.00 | 0.00 | 0.00 | 53 | 1017.1 |
| 20260502220631 | 9 | 324 | 6.4 | 20.9 | 0.00 | 0.00 | 0.00 | 53 | 1017.0 |
| 20260502215630 | 10 | 107 | 6.4 | 30.6 | 0.00 | 0.00 | 0.00 | 52 | 1016.9 |
| 20260502213629 | 9 | 56 | 9.7 | 20.9 | 0.00 | 0.00 | 0.00 | 54 | 1016.8 |
| 20260502212629 | 9 | 341 | 9.7 | 27.4 | 0.00 | 0.00 | 0.00 | 53 | 1016.9 |
| 20260502211630 | 10 | 274 | 4.8 | 24.1 | 0.00 | 0.00 | 0.00 | 52 | 1016.7 |
| 20260502210630 | 10 | 16 | 9.7 | 30.6 | 0.00 | 0.00 | 0.00 | 52 | 1016.7 |
| 20260502205630 | 10 | 299 | 4.8 | 17.7 | 0.00 | 0.00 | 0.00 | 54 | 1016.6 |
| 20260502203631 | 10 | 324 | 9.7 | 24.1 | 0.00 | 0.00 | 0.00 | 53 | 1016.7 |
| 20260502201631 | 10 | 289 | 9.7 | 24.1 | 0.00 | 0.00 | 0.00 | 50 | 1016.7 |
| 20260502200630 | 10 | 338 | 6.4 | 17.7 | 0.00 | 0.00 | 0.00 | 52 | 1016.8 |
| 20260502195630 | 10 | 306 | 12.9 | 20.9 | 0.00 | 0.00 | 0.00 | 50 | 1016.8 |
| 20260502194631 | 10 | 321 | 8.0 | 24.1 | 0.00 | 0.00 | 0.00 | 51 | 1016.8 |
| 20260502193630 | 10 | 3 | 6.4 | 20.9 | 0.00 | 0.00 | 0.00 | 53 | 1017.0 |
| 20260502191629 | 10 | 305 | 6.4 | 20.9 | 0.00 | 0.00 | 0.00 | 55 | 1017.2 |
| 20260502190629 | 10 | 321 | 8.0 | 20.9 | 0.00 | 0.00 | 0.00 | 52 | 1017.3 |
| 20260502185632 | 10 | 303 | 6.4 | 27.4 | 0.00 | 0.00 | 0.00 | 53 | 1017.2 |
| 20260502184629 | 10 | 336 | 9.7 | 30.6 | 0.00 | 0.00 | 0.00 | 58 | 1017.2 |
| 20260502183629 | 10 | 28 | 8.0 | 27.4 | 0.00 | 0.00 | 0.00 | 55 | 1017.4 |
| 20260502182629 | 10 | 307 | 9.7 | 30.6 | 0.00 | 0.03 | 0.00 | 57 | 1017.4 |
| 20260502181629 | 10 | 288 | 9.7 | 20.9 | 0.00 | 0.03 | 0.00 | 55 | 1017.5 |
| 20260502163630 | 9 | 17 | 12.9 | 27.4 | 0.00 | 0.03 | 0.00 | 54 | 1017.7 |
| 20260502162630 | 9 | 302 | 6.4 | 24.1 | 0.00 | 0.03 | 0.00 | 60 | 1017.7 |
| 20260502160630 | 10 | 233 | 11.3 | 41.8 | 0.00 | 0.03 | 0.00 | 59 | 1017.9 |
| 20260502151629 | 8 | 327 | 11.3 | 27.4 | 0.00 | 0.20 | 0.00 | 63 | 1017.9 |
| 20260502150630 | 9 | 323 | 9.7 | 30.6 | 0.00 | 0.20 | 0.00 | 62 | 1018.0 |
| 20260502130629 | 6 | 59 | 9.7 | 27.4 | 0.00 | 0.36 | 0.00 | 67 | 1017.6 |
| 20260502123629 | 5 | 0 | 6.4 | 17.7 | 0.00 | 0.36 | 0.00 | 73 | 1017.5 |
| 20260502122629 | 4 | 34 | 0.0 | 20.9 | 0.00 | 0.36 | 0.00 | 73 | 1017.5 |
| 20260502120629 | 3 | 345 | 3.2 | 9.7 | 0.00 | 0.36 | 0.00 | 78 | 1017.3 |
| 20260502115629 | 2 | 258 | 4.8 | 14.5 | 0.00 | 0.36 | 0.00 | 80 | 1017.3 |
| 20260502114630 | 2 | 307 | 3.2 | 17.7 | 0.00 | 0.36 | 0.00 | 82 | 1017.2 |
| 20260502113629 | 2 | 307 | 1.6 | 6.4 | 0.00 | 0.36 | 0.00 | 83 | 1017.1 |
| 20260502112630 | 1 | 321 | 1.6 | 9.7 | 0.00 | 0.36 | 0.00 | 84 | 1017.1 |
| 20260502111629 | 1 | 319 | 1.6 | 6.4 | 0.00 | 0.36 | 0.00 | 85 | 1017.1 |
| 20260502110631 | 1 | 310 | 0.0 | 6.4 | 0.00 | 0.36 | 0.00 | 87 | 1017.1 |
| 20260502105630 | 1 | 289 | 0.0 | 3.2 | 0.00 | 0.36 | 0.00 | 88 | 1017.1 |
| 20260502104629 | 0 | 10 | 0.0 | 0.0 | 0.00 | 0.36 | 0.00 | 88 | 1017.1 |
| 20260502103630 | 0 | 347 | 0.0 | 3.2 | 0.00 | 0.36 | 0.00 | 88 | 1017.2 |
| 20260502102629 | 0 | 286 | 0.0 | 3.2 | 0.00 | 0.36 | 0.00 | 89 | 1017.1 |
| 20260502101629 | 0 | 288 | 0.0 | 0.0 | 0.00 | 0.36 | 0.00 | 89 | 1017.1 |
| 20260502100630 | 0 | 288 | 0.0 | 0.0 | 0.00 | 0.36 | 0.00 | 90 | 1017.1 |
| 20260502090630 | 1 | 288 | 0.0 | 0.0 | 0.00 | 0.36 | 0.00 | 89 | 1017.2 |
| 20260502070629 | 1 | 10 | 0.0 | 0.0 | 0.00 | 0.36 | 0.00 | 92 | 1016.7 |
| 20260502065629 | 2 | 10 | 0.0 | 0.0 | 0.00 | 0.36 | 0.00 | 92 | 1016.9 |
| 20260502064629 | 2 | 10 | 0.0 | 0.0 | 0.00 | 0.36 | 0.00 | 93 | 1017.1 |
| 20260502063629 | 2 | 10 | 0.0 | 0.0 | 0.00 | 0.36 | 0.00 | 93 | 1017.0 |